{"data":{"norad_id":54118,"epoch":"2026-09-20T01:24:39.083616Z","epoch_age_seconds":63956,"freshness":"FRESH","line1":"1 54118U 22138F   26263.05878569 -.00000050  00000+0 -15821-3 0  9998","line2":"2 54118  87.9111 286.0665 0001973  97.8244 262.3113 13.19721444189344","mean_motion":13.19721444,"eccentricity":0.0001973,"inclination_deg":87.9111,"raan_deg":286.0665,"arg_perigee_deg":97.8244,"mean_anomaly_deg":262.3113,"bstar":-0.00015821,"rev_number":18934,"period_min":109.11393510705,"perigee_km":1184.2917776905,"apogee_km":1187.2765009721,"semimajor_km":7563.9211393313,"source":"CELESTRAK","updated_at":"2026-09-20T09:00:44.715937Z"}}